Location: 22
(39.7117°N, 89.5929°W)
Time: 09:00:40
(UTC-05:00)

Transit 2A - Pass Details

Date: 07 August 2024
Orbit: 590 x 961 km, 66.7° (Epoch: 13 September)

Event Time Altitude Azimuth Distance (km) Brightness Sun altitude
Rises 07:08:23 0° 277° (W) 3,360 8.7 11.1°
Reaches altitude 10° 07:13:13 10° 314° (NW) 2,533 8.4 12.0°
Maximum altitude 07:14:36 11° 328° (NNW) 2,505 8.5 12.2°
Drops below altitude 10° 07:15:55 10° 341° (NNW) 2,579 8.7 12.5°
Sets 07:21:11 0° 18° (NNE) 3,605 9.9 13.5°
